Location: Unspecified
(0.0000°N, 0.0000°E)
Time: 18:58:05
(UTC+00:00)

Vanguard 2 Rocket - Pass Details

Date: 27 January 2020
Orbit: 554 x 3327 km, 32.9° (Epoch: 20 February)

Event Time Altitude Azimuth Distance (km) Brightness Sun altitude
Rises 01:01:58 0° 248° (WSW) 4,222 - -67.8°
Reaches altitude 10° 01:05:40 10° 255° (WSW) 2,830 - -67.3°
Maximum altitude 01:11:22 35° 320° (NW) 1,189 - -66.4°
Drops below altitude 10° 01:15:21 10° 27° (NNE) 1,958 - -65.8°
Sets 01:17:29 0° 38° (NE) 2,758 - -65.5°
